User: anonymous   Login
Location: Tucson
(32.2217°N, 110.9265°W)
Time: 09:18:27
(UTC-07:00)
Language:

Oscar 11 - Orbit

View from above orbital plane
View from above orbital plane
View from above satellite
View from above satellite

Ground track
Ground track

The orbit data is extracted from the following two-line orbital elements,

1 14781U 84021B   22145.52098221  .00001300  00000-0  16346-3 0  9996
2 14781  97.6160 134.0022 0009546  45.4975 314.7018 14.83643170 36642
Epoch (UTC): 25 May 2022 12:30:12
Eccentricity: 0.0009546
inclination: 97.6160°
perigee height: 611 km
apogee height: 624 km
right ascension of ascending node: 134.0022°
argument of perigee: 45.4975°
revolutions per day: 14.83643170
mean anomaly at epoch: 314.7018°
orbit number at epoch: 3664

The dashed part of the orbit path shows where the satellite is in the earth's shadow,  

DLR